Regional Weather Roundup
Issued by NWS

Home | Current Version | Previous Version | Graphics & Text | Print | Product List | Glossary On
Versions: 1 2 3 4 5 6 7 8 9 10 11 12 13 14 15 16 17 18 19 20 21 22 23 24 25 26 27 28 29 30 31 32 33 34 35 36 37 38 39 40 41 42 43 44 45 46 47 48 49 50
000
ASUS45 KCYS 222010
RWRWY

WYOMING REGIONAL WEATHER ROUNDUP
NATIONAL WEATHER SERVICE CHEYENNE WY
200 PM MDT FRI SEP 22 2017

NOTE:  "FAIR" INDICATES FEW OR NO CLOUDS BELOW 12,000 FEET
WITH NO SIGNIFICANT WEATHER AND/OR OBSTRUCTIONS TO VISIBILITY.

WYZ001-222100-
YELLOWSTONE NATIONAL PARK

CITY           SKY/WX    TMP DP  RH WIND       PRES   REMARKS
LK YELLOWSTONE NOT AVBL
W YELLOWSTONE  NOT AVBL

$$
WYZ002>013-054>058-071-098>099-222100-
NORTHERN WYOMING

CITY           SKY/WX    TMP DP  RH WIND       PRES   REMARKS
JACKSON        FAIR      47  31  53 SW14      29.88R
CODY           CLOUDY    39  36  89 N10       29.96F WCI  32
GREYBULL       CLOUDY    45  41  86 CALM      29.94F
WORLAND        CLOUDY    44  39  82 N7        29.94S
SHERIDAN       CLOUDY    46  40  79 CALM      29.97F
BUFFALO        CLOUDY    43  36  76 N7        29.97F
GILLETTE       CLOUDY    48  38  68 N12       29.94R
HULETT         CLOUDY    48  37  66 N10       29.95S
NEWCASTLE      FAIR      59  37  44 NW14G23   29.87S

$$
WYZ014>020-022>026-101>103-222100-
CENTRAL WYOMING

CITY           SKY/WX    TMP DP  RH WIND       PRES   REMARKS
BIG PINEY      PTSUNNY   51  25  36 SW8G20    29.87F
PINEDALE       MOCLDY    48  34  57 S13G18    29.89S
DUBOIS         CLOUDY    37  34  87 SE14      29.90F WCI  29
LANDER           N/A    N/A N/A N/A MISG      29.90F
RIVERTON       CLOUDY    42  38  85 SW5       29.92S
CASPER         PTSUNNY   54  35  48 N6        29.91F
DOUGLAS        FAIR      57  35  43 N13       29.91F

$$
WYZ021-027>030-104>119-222100-
SOUTHERN WYOMING

CITY           SKY/WX    TMP DP  RH WIND       PRES   REMARKS
EVANSTON       FAIR      48  33  56 SW13G22   29.87F
KEMMERER         N/A     52  28  40 SW17G24   29.87F
FORT BRIDGER   CLOUDY    48  32  54 SW6       29.91R
ROCK SPRINGS   FAIR      53  42  66 NE13      29.86F
DIXON          FAIR      61  35  36 CALM      29.90F
RAWLINS        FAIR      57  38  48 SW13      29.91F
SARATOGA       CLOUDY    55  34  44 N8        29.92F
LARAMIE        LGT RAIN  46  39  76 N14       29.94R
CHEYENNE       FAIR      62  36  37 NE17G24   29.88S
TORRINGTON     FAIR      66  35  31 N13       29.83
PINE BLUFFS    FAIR      66  36  32 N15       29.86S

$$



USA.gov is the U.S. government's official web portal to all federal, state and local government web resources and services.